This demonstration page uses our WeatherBlox Daily Observations layout. Learn more.

Left ArrowRight Arrow

39.08367, -84.50855

Hourly Observations for December 22, 2017

Temp ( °F °C ) Dew Point ( °F °C ) Humidity (%) Winds ( mph kmh ) Pressure ( in mb ) Visibility ( mi km ) Precip ( " mm )
12:53 am 00:53 Cloudy 54 12.2 51 10.6 90 90 SSW 10 17 29.92 1013 10 16 N/A
1:53 am 01:53 Cloudy 55 12.8 51 10.6 87 87 SSW 10 17 29.93 1014 10 16 N/A
2:53 am 02:53 Cloudy 56 13.3 50 10 81 81 SW 12 19 29.95 1014 10 16 N/A
3:03 am 03:03 Cloudy 56 13.3 50 10 81 81 SSW 13 20 29.94 1014 10 16 N/A
3:11 am 03:11 Cloudy 56 13.3 50 10 81 81 SSW 12 19 29.94 1014 10 16 N/A
3:53 am 03:53 Cloudy 56 13.3 50 10 81 81 SW 15 24 29.95 1014 10 16 N/A
4:53 am 04:53 Cloudy 54 12.2 51 10.6 90 90 SSW 14 22 29.95 1014 10 16 N/A
5:53 am 05:53 Cloudy 54 12.2 51 10.6 90 90 SW 13 20 29.97 1015 10 16 N/A
6:53 am 06:53 Cloudy 54 12.2 51 10.6 90 90 SSW 9 15 29.99 1016 10 16 N/A
7:53 am 07:53 Cloudy 54 12.2 51 10.6 90 90 SSW 7 11 29.99 1016 10 16 N/A
8:53 am 08:53 Cloudy 54 12.2 52 11.1 93 93 SSW 6 9 30.01 1016 9 14 N/A
9:53 am 09:53 Cloudy 55 12.8 51 10.6 87 87 SSW 9 15 30.01 1016 10 16 N/A
10:53 am 10:53 Cloudy 56 13.3 52 11.1 87 87 SSW 9 15 30.02 1017 10 16 N/A
11:53 am 11:53 Cloudy 56 13.3 53 11.7 90 90 SSW 13 20 29.99 1016 10 16 N/A
12:53 pm 12:53 Cloudy 55 12.8 54 12.2 96 96 SSW 7 11 29.98 1015 7 11 N/A
1:53 pm 13:53 Cloudy 55 12.8 54 12.2 96 96 S 7 11 29.97 1015 7 11 N/A
2:27 pm 14:27 Cloudy with Light Rain 55 12.8 54 12.2 96 96 S 6 9 29.97 1015 2 3 N/A
2:53 pm 14:53 Cloudy with Mist and Fog 55 12.8 54 12.2 96 96 SSW 5 7 29.98 1015 2 3 N/A
3:39 pm 15:39 Cloudy with Mist and Fog 54 12.2 54 12.2 100 100 S 3 6 29.97 1015 2 2 N/A
3:53 pm 15:53 Cloudy with Mist and Fog 54 12.2 54 12.2 100 100 SSW 3 6 29.98 1015 1 2 N/A
4:53 pm 16:53 Cloudy with Fog 53 11.7 53 11.7 100 100 N N/A 29.98 1015 1 1 N/A
5:03 pm 17:03 Cloudy with Mist and Fog 53 11.7 53 11.7 100 100 N N/A 29.97 1015 1 2 N/A
5:53 pm 17:53 Cloudy with Mist and Fog 53 11.7 53 11.7 100 100 N N/A 29.98 1015 1 2 N/A
6:15 pm 18:15 Cloudy with Fog 53 11.7 53 11.7 100 100 N N/A 29.97 1015 1 1 N/A
6:28 pm 18:28 Cloudy with Fog 53 11.7 53 11.7 100 100 N N/A 29.97 1015 1 1 N/A
6:39 pm 18:39 Cloudy with Mist and Fog 52 11.1 52 11.1 100 100 N N/A 30.00 1016 1 2 N/A
6:53 pm 18:53 Cloudy with Light Rain 52 11.1 52 11.1 100 100 N N/A 29.98 1015 1 2 N/A
7:53 pm 19:53 Cloudy with Light Rain 52 11.1 52 11.1 100 100 WNW 3 6 29.97 1015 1 2 0.04 1.02
8:05 pm 20:05 Cloudy with Mist and Fog 53 11.7 53 11.7 100 100 N N/A 29.97 1015 3 5 N/A
8:25 pm 20:25 Cloudy with Light Rain 53 11.7 53 11.7 100 100 N N/A 29.97 1015 1 2 0.02 0.51
8:53 pm 20:53 Cloudy with Light Rain 53 11.7 53 11.7 100 100 N N/A 29.96 1015 1 2 0.05 1.27
9:53 pm 21:53 Cloudy with Light Rain 52 11.1 52 11.1 100 100 N N/A 29.95 1014 1 2 0.04 1.02
10:53 pm 22:53 Cloudy with Light Rain 52 11.1 52 11.1 100 100 N N/A 29.95 1014 1 2 0.03 0.76
11:06 pm 23:06 Cloudy with Light Rain 52 11.1 52 11.1 100 100 N N/A 29.94 1014 2 2 0.01 0.25
11:15 pm 23:15 Cloudy with Light Rain 52 11.1 52 11.1 100 100 N N/A 29.94 1014 2 3 0.01 0.25
11:34 pm 23:34 Cloudy with Rain 52 11.1 52 11.1 100 100 N N/A 29.94 1014 1 2 0.05 1.27
11:53 pm 23:53 Cloudy with Rain 52 11.1 52 11.1 100 100 N N/A 29.94 1014 1 2 0.08 2.03

Powered by AerisWeather